Location: Ermatingen
(47.6706°N, 9.0857°E)
Time: 15:18:23
(UTC+00:00)

ATLAS 2AS CENTAUR R/B - Pass Details

Date: 18 September 2020
Orbit: 939 x 1273 km, 63.7° (Epoch: 19 October)

Event Time Altitude Azimuth Distance (km) Brightness Sun altitude
Exits shadow 22:59:05 16° 277° (W) 2,829 4.9 -40.8°
Maximum altitude 23:04:37 34° 333° (NNW) 1,946 4.3 -40.9°
Drops below altitude 10° 23:11:34 10° 37° (NE) 3,180 5.6 -40.9°
Sets 23:14:37 0° 47° (NE) 4,104 6.2 -40.9°
